Location: Mountain Grove
(34.0887°N, 86.6172°W)
Time: 00:47:30
(UTC+00:00)

ERS-2 - Pass Details

Date: 14 July 2020
Orbit: 494 x 498 km, 98.5° (Epoch: 12 August)

Event Time Altitude Azimuth Distance (km) Brightness Sun altitude
Exits shadow 08:44:51 - 139° (SE) 2,339 5.5 -20.9°
Reaches altitude 10° 08:46:33 10° 129° (SE) 1,688 4.8 -20.6°
Maximum altitude 08:49:37 26° 71° (ENE) 1,000 4.3 -20.2°
Drops below altitude 10° 08:52:42 10° 14° (NNE) 1,696 5.7 -19.7°
Sets 08:54:59 0° 1° (N) 2,582 6.5 -19.4°
